Tracking 18032 objects as of 27-March-2017
HD Live streaming from Space Station
objects crossing your sky now

THORAD AGENA D DEB

Track THORAD AGENA D DEB now!
10-day predictions


NORAD ID: 4177
Int'l Code: 1969-082AV
Perigee: 860.9 km
Apogee: 1,022.6 km
Inclination: 70.1 °
Period: 103.7 minutes
Semi major axis: 7312 km
RCS: 0.0743 m2 (small)
Launch date: September 30, 1969
Source: United States (US)
Launch site: AIR FORCE WESTERN TEST RANGE (AFWTR)

Note: This is SATELLITE DEBRIS
Your satellite tracking list
Your tracking list is empty





NASA's NSSDC Master Catalog

Two Line Element Set (TLE):
1  4177U 69082AV  17084.76504123 -.00000172 +00000-0 -96007-4 0  9990
2  4177 070.0701 124.1877 0110518 061.5252 299.6929 13.88296043387966
Source of the keplerian elements: AFSPC